TimeEST,TemperatureF,Dew PointF,Humidity,Sea Level PressureIn,VisibilityMPH,Wind Direction,Wind SpeedMPH,Gust SpeedMPH,PrecipitationIn,Events,Conditions,WindDirDegrees,DateUTC
12:32 AM,3.2,-0.4,85,30.08,6.0,SE,8.1,-,0.00,Snow,Light Snow,140,2013-01-24 05:32:00
12:47 AM,5.0,-0.4,78,30.07,7.0,SSE,6.9,-,0.00,Snow,Light Snow,160,2013-01-24 05:47:00
12:54 AM,5.0,-0.9,76,30.15,7.0,SSE,8.1,-,0.00,Snow,Light Snow,160,2013-01-24 05:54:00
1:54 AM,5.0,-0.0,80,30.14,10.0,SE,9.2,-,0.00,,Clear,140,2013-01-24 06:54:00
2:54 AM,5.0,-0.9,76,30.15,10.0,SSE,5.8,-,N/A,,Clear,150,2013-01-24 07:54:00
3:54 AM,3.0,-2.0,80,30.17,10.0,SSE,5.8,-,N/A,,Scattered Clouds,150,2013-01-24 08:54:00
4:54 AM,5.0,-0.9,76,30.21,10.0,Calm,Calm,-,N/A,,Overcast,0,2013-01-24 09:54:00
5:54 AM,5.0,-0.0,80,30.24,6.0,Calm,Calm,-,0.00,Snow,Light Snow,0,2013-01-24 10:54:00
6:54 AM,6.1,1.0,80,30.27,4.0,SSE,3.5,-,0.00,Snow,Light Snow,160,2013-01-24 11:54:00
7:09 AM,5.0,1.4,85,30.21,6.0,SSE,3.5,-,0.00,Snow,Light Snow,150,2013-01-24 12:09:00
7:54 AM,5.0,1.0,84,30.31,6.0,SSE,3.5,-,0.00,,Overcast,160,2013-01-24 12:54:00
8:54 AM,6.1,1.0,80,30.35,10.0,SSE,4.6,-,N/A,,Overcast,160,2013-01-24 13:54:00
9:10 AM,8.6,1.4,73,30.28,10.0,Calm,Calm,-,N/A,,Overcast,0,2013-01-24 14:10:00
9:44 AM,8.6,3.2,79,30.29,1.8,Calm,Calm,-,0.00,Snow,Light Snow,0,2013-01-24 14:44:00
9:54 AM,10.0,5.0,80,30.38,1.5,Calm,Calm,-,0.00,Snow,Light Snow,0,2013-01-24 14:54:00
10:15 AM,12.2,6.8,79,30.32,3.0,Calm,Calm,-,0.00,Snow,Light Snow,0,2013-01-24 15:15:00
10:32 AM,12.2,6.8,79,30.33,2.5,Calm,Calm,-,0.00,Snow,Light Snow,0,2013-01-24 15:32:00
10:40 AM,12.2,6.8,79,30.33,4.0,NW,3.5,-,0.00,Snow,Light Snow,320,2013-01-24 15:40:00
10:54 AM,12.9,7.0,77,30.41,7.0,NNW,5.8,-,0.00,Snow,Light Snow,330,2013-01-24 15:54:00
11:25 AM,14.0,8.6,79,30.35,2.5,NW,8.1,-,0.00,Snow,Light Snow,310,2013-01-24 16:25:00
11:47 AM,14.0,8.6,79,30.36,3.0,NW,15.0,-,0.00,Snow,Light Snow,310,2013-01-24 16:47:00
11:54 AM,15.1,8.1,74,30.44,4.0,NW,15.0,-,0.00,Snow,Light Snow,320,2013-01-24 16:54:00
12:43 PM,15.8,5.0,62,30.38,10.0,NNW,17.3,23.0,0.00,,Overcast,330,2013-01-24 17:43:00
12:54 PM,14.0,3.9,64,30.45,10.0,NW,15.0,-,0.00,,Overcast,320,2013-01-24 17:54:00
1:54 PM,15.1,3.9,61,30.45,10.0,NNW,13.8,-,N/A,,Overcast,330,2013-01-24 18:54:00
2:54 PM,14.0,3.9,64,30.48,10.0,NNW,13.8,-,0.00,,Overcast,330,2013-01-24 19:54:00
3:54 PM,12.9,1.0,59,30.51,10.0,NNW,12.7,-,N/A,,Partly Cloudy,330,2013-01-24 20:54:00
4:54 PM,12.0,-0.0,59,30.53,10.0,WNW,9.2,-,N/A,,Partly Cloudy,300,2013-01-24 21:54:00
5:54 PM,10.9,-0.0,61,30.56,10.0,WNW,4.6,-,N/A,,Overcast,300,2013-01-24 22:54:00
6:54 PM,6.1,-0.9,73,30.57,10.0,Calm,Calm,-,N/A,,Clear,0,2013-01-24 23:54:00
7:54 PM,5.0,-0.9,76,30.58,10.0,Calm,Calm,-,N/A,,Clear,0,2013-01-25 00:54:00
8:54 PM,1.9,-2.0,83,30.57,10.0,Calm,Calm,-,N/A,,Clear,0,2013-01-25 01:54:00
9:54 PM,1.9,-2.9,80,30.57,10.0,South,3.5,-,N/A,,Clear,180,2013-01-25 02:54:00
10:54 PM,1.0,-4.0,79,30.56,10.0,South,4.6,-,N/A,,Clear,180,2013-01-25 03:54:00
11:54 PM,-0.0,-5.1,79,30.56,10.0,SSE,3.5,-,N/A,,Clear,150,2013-01-25 04:54:00